This is the latest recevied weather packets stored in our database for station/object KC1IUC-15. If no packets are shown the sender has not sent any weather packets the latest 10 day(s).
| Time | Temp. | Humidity | Pressure | Rain* | Wind** | Luminosity | Snow |
|---|---|---|---|---|---|---|---|
| 1778143803 | 8.89° C | 95% | 1008.6 hPa | 1.78 mm | - | 0 W/m² | - |
| 1778143504 | 8.89° C | 95% | 1008.6 hPa | 2.03 mm | - | 0 W/m² | - |
| 1778143204 | 8.89° C | 95% | 1008.6 hPa | 2.54 mm | - | 0 W/m² | - |
| 1778142904 | 8.89° C | 95% | 1008.2 hPa | 2.79 mm | - | 0 W/m² | - |
| 1778142604 | 8.89° C | 95% | 1008.6 hPa | 3.3 mm | - | 0 W/m² | - |
| 1778142303 | 8.89° C | 95% | 1008.9 hPa | 3.3 mm | - | 0 W/m² | - |
| 1778142003 | 8.89° C | 95% | 1008.9 hPa | 3.05 mm | - | 0 W/m² | - |
| 1778141704 | 8.89° C | 95% | 1008.6 hPa | 3.05 mm | - | 0 W/m² | - |
| 1778141403 | 8.89° C | 95% | 1008.9 hPa | 3.3 mm | - | 0 W/m² | - |
| 1778141104 | 9.44° C | 95% | 1008.2 hPa | 3.56 mm | - | 0 W/m² | - |
| 1778140803 | 9.44° C | 95% | 1008.6 hPa | 3.3 mm | - | 0 W/m² | - |
| 1778140504 | 9.44° C | 95% | 1008.2 hPa | 3.3 mm | - | 0 W/m² | - |
| 1778140204 | 9.44° C | 95% | 1008.9 hPa | 2.79 mm | - | 0 W/m² | - |
| 1778139904 | 9.44° C | 95% | 1008.9 hPa | 2.79 mm | - | 0 W/m² | - |
| 1778139603 | 10° C | 95% | 1008.9 hPa | 2.54 mm | - | 0 W/m² | - |
| 1778139304 | 10° C | 95% | 1008.9 hPa | 2.03 mm | - | 0 W/m² | - |
| 1778139003 | 10° C | 95% | 1008.2 hPa | 1.52 mm | - | 0 W/m² | - |
| 1778138704 | 10° C | 95% | 1008.6 hPa | 1.78 mm | - | 0 W/m² | - |
| 1778138404 | 10° C | 94% | 1008.6 hPa | 1.78 mm | - | 0 W/m² | - |
| 1778138104 | 10° C | 94% | 1008.6 hPa | 1.52 mm | - | 0 W/m² | - |
| 1778137804 | 10° C | 93% | 1008.2 hPa | 1.27 mm | - | 0 W/m² | - |
| 1778137503 | 10° C | 93% | 1008.2 hPa | 1.02 mm | - | 0 W/m² | - |
| 1778137203 | 10° C | 92% | 1008.6 hPa | 1.02 mm | - | 0 W/m² | - |
| 1778136904 | 10° C | 92% | 1008.2 hPa | 0.76 mm | - | 0 W/m² | - |
| 1778136604 | 10.56° C | 91% | 1008.6 hPa | 0.76 mm | - | 0 W/m² | - |
* Rain latest hour (hover to see other rain measurements)
** Current wind speed in m/s (hover to see current wind gust speed)